| time (UTC) | temp F | wind direction | speed MPH | gust MPH | rain 1hr in | rain 24hr in | rain mn in | humidity % | barometer mb |
| 20260505031556 | 74 | 244 | 0.0 | 0.0 | 0.00 | 0.00 | 0.00 | 43 | 965.9 |
| 20260505030047 | 75 | 244 | 0.0 | 0.0 | 0.00 | 0.00 | 0.00 | 42 | 965.9 |
| 20260505024551 | 75 | 221 | 0.0 | 0.0 | 0.00 | 0.00 | 0.00 | 41 | 966.0 |
| 20260505023048 | 76 | 207 | 0.0 | 0.0 | 0.00 | 0.00 | 0.00 | 40 | 965.9 |
| 20260505021544 | 76 | 208 | 0.0 | 0.0 | 0.00 | 0.00 | 0.00 | 37 | 965.7 |
| 20260505020046 | 76 | 257 | 0.0 | 0.0 | 0.00 | 0.00 | 0.00 | 38 | 965.9 |
| 20260505014601 | 76 | 257 | 0.0 | 0.0 | 0.00 | 0.00 | 0.00 | 41 | 965.6 |
| 20260505013044 | 76 | 257 | 0.0 | 0.0 | 0.00 | 0.00 | 0.00 | 40 | 965.5 |
| 20260505011549 | 76 | 257 | 0.0 | 0.0 | 0.00 | 0.00 | 0.00 | 40 | 965.5 |
| 20260505010042 | 76 | 257 | 0.0 | 0.0 | 0.00 | 0.00 | 0.00 | 39 | 965.6 |
| 20260505004542 | 76 | 257 | 0.0 | 0.0 | 0.00 | 0.00 | 0.00 | 40 | 965.6 |
| 20260505003041 | 76 | 257 | 0.0 | 0.0 | 0.00 | 0.00 | 0.00 | 40 | 965.6 |
| 20260505001544 | 76 | 257 | 0.0 | 0.0 | 0.00 | 0.00 | 0.00 | 40 | 965.8 |
| 20260505000042 | 76 | 257 | 0.0 | 8.0 | 0.00 | 0.00 | 0.00 | 40 | 966.1 |
| 20260504234540 | 76 | 260 | 0.0 | 0.0 | 0.00 | 0.00 | 0.00 | 41 | 966.2 |
| 20260504233041 | 76 | 275 | 0.0 | 0.0 | 0.00 | 0.00 | 0.00 | 41 | 966.0 |
| 20260504231541 | 76 | 257 | 3.0 | 9.0 | 0.00 | 0.00 | 0.00 | 41 | 966.1 |
| 20260504230043 | 76 | 296 | 0.0 | 1.0 | 0.00 | 0.00 | 0.00 | 42 | 966.0 |
| 20260504224543 | 75 | 275 | 0.0 | 10.0 | 0.00 | 0.00 | 0.00 | 42 | 966.2 |
| 20260504223037 | 75 | 292 | 4.0 | 11.0 | 0.00 | 0.00 | 0.00 | 42 | 966.5 |
| 20260504221538 | 76 | 257 | 2.0 | 11.0 | 0.00 | 0.00 | 0.00 | 41 | 966.4 |
| 20260504220036 | 76 | 287 | 0.0 | 0.0 | 0.00 | 0.00 | 0.00 | 41 | 966.5 |
| 20260504214536 | 76 | 285 | 2.0 | 10.0 | 0.00 | 0.00 | 0.00 | 42 | 966.7 |
| 20260504213035 | 76 | 276 | 0.0 | 0.0 | 0.00 | 0.00 | 0.00 | 43 | 967.3 |
| 20260504211535 | 75 | 297 | 7.0 | 13.0 | 0.00 | 0.00 | 0.00 | 43 | 967.6 |
| 20260504210048 | 76 | 283 | 1.0 | 15.0 | 0.00 | 0.00 | 0.00 | 42 | 967.4 |
| 20260504204551 | 77 | 245 | 3.0 | 12.0 | 0.00 | 0.00 | 0.00 | 38 | 967.5 |
| 20260504203035 | 77 | 190 | 4.0 | 11.0 | 0.00 | 0.00 | 0.00 | 40 | 967.3 |
| 20260504201531 | 76 | 200 | 3.0 | 12.0 | 0.00 | 0.00 | 0.00 | 41 | 967.4 |
| 20260504200031 | 76 | 285 | 0.0 | 7.0 | 0.00 | 0.00 | 0.00 | 42 | 967.4 |
| 20260504194530 | 76 | 257 | 1.0 | 10.0 | 0.00 | 0.00 | 0.00 | 43 | 967.3 |
| 20260504193031 | 76 | 259 | 7.0 | 13.0 | 0.00 | 0.00 | 0.00 | 44 | 967.9 |
| 20260504191531 | 75 | 294 | 7.0 | 13.0 | 0.00 | 0.00 | 0.00 | 44 | 967.9 |
| 20260504190028 | 75 | 214 | 1.0 | 8.0 | 0.00 | 0.00 | 0.00 | 45 | 967.4 |
| 20260504184529 | 74 | 292 | 1.0 | 10.0 | 0.00 | 0.00 | 0.00 | 46 | 967.3 |
| 20260504183128 | 75 | 290 | 1.0 | 11.0 | 0.00 | 0.00 | 0.00 | 45 | 967.8 |
| 20260504181527 | 75 | 238 | 4.0 | 11.0 | 0.00 | 0.00 | 0.00 | 39 | 968.2 |
| 20260504180026 | 75 | 214 | 9.0 | 16.0 | 0.00 | 0.00 | 0.00 | 36 | 967.8 |
| 20260504174525 | 0 | 224 | 4.0 | 14.0 | 0.00 | 0.00 | 0.00 | 37 | 967.7 |
| 20260504173023 | 75 | 148 | 0.0 | 14.0 | 0.00 | 0.00 | 0.00 | 37 | 967.4 |
| 20260504171523 | 75 | 160 | 4.0 | 13.0 | 0.00 | 0.00 | 0.00 | 36 | 967.9 |
| 20260504081533 | 76 | 148 | 0.0 | 0.0 | 0.00 | 0.00 | 0.00 | 41 | 965.5 |
| 20260504050015 | 81 | 126 | 7.0 | 14.0 | 0.00 | 0.00 | 0.00 | 29 | 965.3 |
| 20260504044517 | 81 | 180 | 11.0 | 21.0 | 0.00 | 0.00 | 0.00 | 28 | 965.2 |
| 20260504043015 | 82 | 202 | 8.0 | 16.0 | 0.00 | 0.00 | 0.00 | 26 | 965.2 |
| 20260504041534 | 82 | 191 | 9.0 | 17.0 | 0.00 | 0.00 | 0.00 | 26 | 964.8 |
| 20260504040020 | 83 | 182 | 8.0 | 21.0 | 0.00 | 0.00 | 0.00 | 26 | 964.6 |
| 20260504034513 | 83 | 166 | 11.0 | 23.0 | 0.00 | 0.00 | 0.00 | 25 | 964.3 |